UAL303 KPWM-KORD

Flight info

Callsign UAL303
Flight time N/A
Altitude 38000
Route HSKEL3 CAM Q822 FNT WYNDE3
Aircraft A320/M-VGDW/C

Departure

Time 2026-05-05 20:28
Airport Portland International Jetport (KPWM)

Arrival

Time N/A
Airport Chicago O'Hare International Airport (KORD)
Time Latitude Longitude Altitude Speed Heading
2026-05-05 20:09 43.64704 -70.31259 65 ft 0 kts 58°
2026-05-05 20:15 43.64702 -70.31263 65 ft 2 kts 56°
2026-05-05 20:15 43.64692 -70.31281 62 ft 3 kts 52°
2026-05-05 20:15 43.64681 -70.31304 57 ft 3 kts 54°
2026-05-05 20:16 43.64668 -70.31319 59 ft 3 kts
2026-05-05 20:16 43.64648 -70.31323 62 ft 3 kts 13°
2026-05-05 20:16 43.64647 -70.31323 62 ft 3 kts 13°
2026-05-05 20:18 43.64637 -70.31326 57 ft 3 kts 21°
2026-05-05 20:18 43.64620 -70.31338 59 ft 3 kts 52°
2026-05-05 20:19 43.64614 -70.31356 58 ft 1 kts 94°
2026-05-05 20:19 43.64614 -70.31358 58 ft 0 kts 95°
2026-05-05 20:25 43.64613 -70.31355 65 ft 3 kts 95°
2026-05-05 20:25 43.64608 -70.31269 61 ft 15 kts 95°
2026-05-05 20:26 43.64594 -70.31074 61 ft 25 kts 95°
2026-05-05 20:26 43.64577 -70.30831 55 ft 27 kts 93°
2026-05-05 20:26 43.64563 -70.30598 58 ft 24 kts 95°
2026-05-05 20:26 43.64546 -70.30360 53 ft 27 kts 94°
2026-05-05 20:27 43.64529 -70.30106 52 ft 24 kts 96°
2026-05-05 20:27 43.64477 -70.29913 51 ft 22 kts 167°
2026-05-05 20:27 43.64410 -70.29991 50 ft 11 kts 275°
2026-05-05 20:27 43.64427 -70.30234 53 ft 58 kts 275°
2026-05-05 20:28 43.64486 -70.31120 64 ft 123 kts 275°
2026-05-05 20:28 43.64556 -70.32504 286 ft 150 kts 264°
2026-05-05 20:28 43.64644 -70.33955 926 ft 153 kts 267°
2026-05-05 20:28 43.64751 -70.35384 1555 ft 151 kts 265°
2026-05-05 20:29 43.64858 -70.36867 2020 ft 164 kts 266°
2026-05-05 20:29 43.64968 -70.38544 2374 ft 187 kts 268°
2026-05-05 20:29 43.65093 -70.40442 2707 ft 210 kts 268°
2026-05-05 20:29 43.65236 -70.42579 3117 ft 235 kts 270°
2026-05-05 20:30 43.65399 -70.44884 3846 ft 245 kts 270°
2026-05-05 20:30 43.65574 -70.47232 4808 ft 247 kts 272°
2026-05-05 20:30 43.65922 -70.49542 5749 ft 251 kts 278°
2026-05-05 20:30 43.66386 -70.51890 6638 ft 254 kts 280°
2026-05-05 20:31 43.66886 -70.54244 7534 ft 257 kts 281°
2026-05-05 20:31 43.67395 -70.56613 8420 ft 258 kts 281°
2026-05-05 20:31 43.67903 -70.59008 9296 ft 261 kts 281°
2026-05-05 20:31 43.68409 -70.61433 10105 ft 263 kts 281°
2026-05-05 20:32 43.68924 -70.63941 10480 ft 283 kts 281°
2026-05-05 20:32 43.69474 -70.66667 10652 ft 306 kts 281°
2026-05-05 20:32 43.70063 -70.69606 10851 ft 326 kts 281°
2026-05-05 20:32 43.70683 -70.72666 11403 ft 333 kts 282°
2026-05-05 20:33 43.71314 -70.75761 12073 ft 336 kts 282°
2026-05-05 20:33 43.71727 -70.78900 12730 ft 336 kts 271°
2026-05-05 20:33 43.71617 -70.82131 13402 ft 338 kts 259°
2026-05-05 20:33 43.70982 -70.85262 14010 ft 340 kts 248°
2026-05-05 20:34 43.70102 -70.88311 14603 ft 343 kts 248°
2026-05-05 20:34 43.69214 -70.91395 15173 ft 347 kts 248°
2026-05-05 20:34 43.68317 -70.94503 15722 ft 350 kts 248°
2026-05-05 20:34 43.67405 -70.97647 16323 ft 353 kts 248°
2026-05-05 20:35 43.66487 -71.00819 16907 ft 357 kts 248°
2026-05-05 20:35 43.65568 -71.04024 17508 ft 361 kts 249°
2026-05-05 20:35 43.64874 -71.07382 18100 ft 365 kts 255°
2026-05-05 20:35 43.64260 -71.10801 18649 ft 369 kts 255°
2026-05-05 20:36 43.63648 -71.14218 19206 ft 372 kts 255°
2026-05-05 20:36 43.63033 -71.17691 19772 ft 374 kts 255°
2026-05-05 20:36 43.62409 -71.21209 20304 ft 377 kts 255°
2026-05-05 20:36 43.61774 -71.24743 20818 ft 380 kts 255°
2026-05-05 20:37 43.61129 -71.28289 21319 ft 383 kts 255°
2026-05-05 20:37 43.60700 -71.30652 21637 ft 384 kts 255°
2026-05-05 20:37 43.59830 -71.35463 22258 ft 388 kts 255°
2026-05-05 20:37 43.59173 -71.39085 22705 ft 390 kts 255°
2026-05-05 20:38 43.58508 -71.42731 23147 ft 393 kts 255°
2026-05-05 20:38 43.57845 -71.46352 23527 ft 395 kts 255°
2026-05-05 20:38 43.57168 -71.50038 23891 ft 397 kts 255°
2026-05-05 20:38 43.56485 -71.53740 24258 ft 399 kts 255°
2026-05-05 20:39 43.55798 -71.57455 24615 ft 401 kts 255°
2026-05-05 20:39 43.55105 -71.61199 24962 ft 403 kts 255°
2026-05-05 20:39 43.54412 -71.64949 25289 ft 405 kts 255°
2026-05-05 20:39 43.53714 -71.68723 25666 ft 407 kts 255°
2026-05-05 20:40 43.53016 -71.72509 26034 ft 409 kts 255°
2026-05-05 20:40 43.52317 -71.76308 26384 ft 410 kts 255°
2026-05-05 20:40 43.51611 -71.80129 26725 ft 412 kts 255°
2026-05-05 20:40 43.50895 -71.83966 27061 ft 414 kts 255°
2026-05-05 20:41 43.50185 -71.87766 27378 ft 416 kts 255°
2026-05-05 20:41 43.49458 -71.91638 27693 ft 418 kts 255°
2026-05-05 20:41 43.48725 -71.95510 28093 ft 417 kts 255°
2026-05-05 20:41 43.47992 -71.99382 28568 ft 415 kts 255°
2026-05-05 20:42 43.47262 -72.03234 29036 ft 414 kts 255°
2026-05-05 20:42 43.46539 -72.07074 29506 ft 413 kts 255°
2026-05-05 20:42 43.45830 -72.10848 29942 ft 412 kts 255°
2026-05-05 20:42 43.45111 -72.14663 30345 ft 411 kts 255°
2026-05-05 20:43 43.44392 -72.18467 30753 ft 410 kts 255°
2026-05-05 20:43 43.43672 -72.22261 31154 ft 409 kts 255°
2026-05-05 20:43 43.42954 -72.26047 31560 ft 408 kts 255°
2026-05-05 20:43 43.42233 -72.29827 31999 ft 407 kts 255°
2026-05-05 20:44 43.41512 -72.33591 32422 ft 406 kts 256°
2026-05-05 20:44 43.40787 -72.37344 32845 ft 405 kts 256°
2026-05-05 20:44 43.40059 -72.41094 33292 ft 405 kts 256°
2026-05-05 20:44 43.39336 -72.44832 33724 ft 403 kts 255°
2026-05-05 20:45 43.37060 -72.51818 34471 ft 404 kts 240°
2026-05-05 20:45 43.35581 -72.55102 34824 ft 403 kts 240°
2026-05-05 20:45 43.34101 -72.58378 35171 ft 402 kts 240°
2026-05-05 20:46 43.32628 -72.61637 35509 ft 401 kts 240°
2026-05-05 20:46 43.31156 -72.64888 35843 ft 399 kts 240°
2026-05-05 20:46 43.29695 -72.68120 36158 ft 398 kts 240°
2026-05-05 20:46 43.28234 -72.71348 36436 ft 398 kts 240°
2026-05-05 20:47 43.26775 -72.74575 36723 ft 397 kts 240°
2026-05-05 20:47 43.25319 -72.77798 37011 ft 397 kts 240°
2026-05-05 20:47 43.23864 -72.81011 37287 ft 396 kts 240°
2026-05-05 20:47 43.22410 -72.84216 37552 ft 396 kts 240°
2026-05-05 20:48 43.20953 -72.87425 37711 ft 397 kts 240°
2026-05-05 20:48 43.19984 -72.89558 37734 ft 398 kts 240°
2026-05-05 20:48 43.17061 -72.95981 37747 ft 400 kts 240°
2026-05-05 20:49 43.14116 -73.02442 37737 ft 400 kts 240°
2026-05-05 20:49 43.11156 -73.08915 37741 ft 401 kts 240°
2026-05-05 20:50 43.08185 -73.15380 37760 ft 401 kts 240°
2026-05-05 20:50 43.05211 -73.21853 37762 ft 402 kts 240°
2026-05-05 20:51 43.02254 -73.28279 37770 ft 402 kts 240°
2026-05-05 20:51 43.00021 -73.35189 37771 ft 397 kts 258°
2026-05-05 20:52 42.99638 -73.42655 37777 ft 395 kts 272°
2026-05-05 20:52 42.99841 -73.50155 37773 ft 395 kts 271°
2026-05-05 20:53 43.00009 -73.57653 37766 ft 394 kts 271°
2026-05-05 20:53 43.00179 -73.65125 37766 ft 393 kts 271°
2026-05-05 20:54 43.00347 -73.72531 37763 ft 391 kts 272°
2026-05-05 20:54 43.00517 -73.79951 37764 ft 390 kts 272°
2026-05-05 20:55 43.00672 -73.87347 37769 ft 388 kts 272°
2026-05-05 20:55 43.00818 -73.94716 37765 ft 387 kts 272°
2026-05-05 20:56 43.00966 -74.02011 37771 ft 385 kts 272°
2026-05-05 20:56 43.01110 -74.09339 37772 ft 385 kts 272°
2026-05-05 20:57 43.01250 -74.16663 37768 ft 384 kts 272°
2026-05-05 20:57 43.01381 -74.23950 37772 ft 384 kts 272°
2026-05-05 20:58 43.01591 -74.31193 37775 ft 384 kts 274°
2026-05-05 20:58 43.01955 -74.38466 37782 ft 383 kts 274°
2026-05-05 20:59 43.02328 -74.45717 37789 ft 382 kts 274°
2026-05-05 20:59 43.02658 -74.52960 37794 ft 381 kts 273°
2026-05-05 21:00 43.02963 -74.60134 37798 ft 379 kts 273°
2026-05-05 21:00 43.03263 -74.67317 37796 ft 377 kts 273°
2026-05-05 21:01 43.03569 -74.74465 37798 ft 376 kts 273°
2026-05-05 21:01 43.03867 -74.81589 37803 ft 375 kts 273°
2026-05-05 21:02 43.04155 -74.88699 37805 ft 373 kts 273°
2026-05-05 21:02 43.04442 -74.95781 37805 ft 373 kts 273°
2026-05-05 21:03 43.04727 -75.02852 37808 ft 372 kts 273°
2026-05-05 21:03 43.05004 -75.09879 37810 ft 371 kts 273°
2026-05-05 21:04 43.05270 -75.16924 37812 ft 371 kts 273°
2026-05-05 21:04 43.05530 -75.23969 37822 ft 370 kts 273°
2026-05-05 21:05 43.05786 -75.31009 37824 ft 370 kts 272°
2026-05-05 21:05 43.05998 -75.37987 37820 ft 369 kts 272°
2026-05-05 21:06 43.06186 -75.45007 37820 ft 369 kts 272°
2026-05-05 21:06 43.06366 -75.52012 37818 ft 368 kts 272°
2026-05-05 21:07 43.06552 -75.59012 37818 ft 368 kts 272°
2026-05-05 21:07 43.06742 -75.66000 37831 ft 367 kts 272°
2026-05-05 21:08 43.06924 -75.72977 37828 ft 367 kts 272°
2026-05-05 21:08 43.07098 -75.79937 37804 ft 366 kts 271°
2026-05-05 21:09 43.07266 -75.86904 37806 ft 366 kts 271°
2026-05-05 21:09 43.07431 -75.93806 37801 ft 365 kts 271°
2026-05-05 21:10 43.07597 -76.00745 37802 ft 364 kts 271°
2026-05-05 21:10 43.07755 -76.07668 37800 ft 364 kts 271°